Year,Month,Day,Hour,Minute,Value (Times are PST for temperature in C)
2022,03,30,08,49,8.20
2022,03,30,08,50,8.20
2022,03,30,08,51,8.20
2022,03,30,08,52,8.20
2022,03,30,08,53,8.20
2022,03,30,08,54,8.20
2022,03,30,08,55,8.30
2022,03,30,08,56,8.30
2022,03,30,08,57,8.30
2022,03,30,08,58,8.30
2022,03,30,08,59,8.30
2022,03,30,09,00,8.30
2022,03,30,09,01,8.30
2022,03,30,09,02,8.30
2022,03,30,09,03,8.40
2022,03,30,09,04,8.40
2022,03,30,09,05,8.40
2022,03,30,09,06,8.40
2022,03,30,09,07,8.40
2022,03,30,09,08,8.50
2022,03,30,09,09,8.50
2022,03,30,09,10,8.50
2022,03,30,09,11,8.50
2022,03,30,09,12,8.50
2022,03,30,09,13,8.50
2022,03,30,09,14,8.50
2022,03,30,09,15,8.50
2022,03,30,09,16,8.60
2022,03,30,09,17,8.60
2022,03,30,09,18,8.60
2022,03,30,09,19,8.60
2022,03,30,09,20,8.60
2022,03,30,09,21,8.60
2022,03,30,09,22,8.60
2022,03,30,09,23,8.60
2022,03,30,09,24,8.60
2022,03,30,09,25,8.60
2022,03,30,09,26,8.60
2022,03,30,09,27,8.60
2022,03,30,09,28,8.60
2022,03,30,09,29,8.60
2022,03,30,09,30,8.60
2022,03,30,09,31,8.60
2022,03,30,09,32,8.60
2022,03,30,09,33,8.60
2022,03,30,09,34,8.60
2022,03,30,09,35,8.60
2022,03,30,09,36,8.60
2022,03,30,09,37,8.60
2022,03,30,09,38,8.60
2022,03,30,09,39,8.60
2022,03,30,09,40,8.60
2022,03,30,09,41,8.60
2022,03,30,09,42,8.60
2022,03,30,09,43,8.60
2022,03,30,09,44,8.60
2022,03,30,09,45,8.50
2022,03,30,09,46,8.50
2022,03,30,09,47,8.60
2022,03,30,09,48,8.60
2022,03,30,09,49,8.60
2022,03,30,09,50,8.60
2022,03,30,09,51,8.60
2022,03,30,09,52,8.60
2022,03,30,09,53,8.60
2022,03,30,09,54,8.70
2022,03,30,09,55,8.70
2022,03,30,09,56,8.70
2022,03,30,09,57,8.70
2022,03,30,09,58,8.70
2022,03,30,09,59,8.70
2022,03,30,10,00,8.70
2022,03,30,10,01,8.70
2022,03,30,10,02,8.70
2022,03,30,10,03,8.70
2022,03,30,10,04,8.70
2022,03,30,10,05,8.70
2022,03,30,10,06,8.60
2022,03,30,10,07,8.60
2022,03,30,10,08,8.60
2022,03,30,10,09,8.70
2022,03,30,10,10,8.70
2022,03,30,10,11,8.70
2022,03,30,10,12,8.70
2022,03,30,10,13,8.70
2022,03,30,10,14,8.70
2022,03,30,10,15,8.70
2022,03,30,10,16,8.70
2022,03,30,10,17,8.80
2022,03,30,10,18,8.80
2022,03,30,10,19,8.80
2022,03,30,10,20,8.90
2022,03,30,10,21,8.90
2022,03,30,10,22,9.00
2022,03,30,10,23,9.00
2022,03,30,10,24,9.00
2022,03,30,10,25,9.00
2022,03,30,10,26,9.00
2022,03,30,10,27,9.10
2022,03,30,10,28,9.10
2022,03,30,10,29,9.20
2022,03,30,10,30,9.20
2022,03,30,10,31,9.30
2022,03,30,10,32,9.30
2022,03,30,10,33,9.20
2022,03,30,10,34,9.20
2022,03,30,10,35,9.20
2022,03,30,10,36,9.20
2022,03,30,10,37,9.20
2022,03,30,10,38,9.20
2022,03,30,10,39,9.20
2022,03,30,10,40,9.30
2022,03,30,10,41,9.30
2022,03,30,10,42,9.30
2022,03,30,10,43,9.30
2022,03,30,10,44,9.30
2022,03,30,10,45,9.30
2022,03,30,10,46,9.40
2022,03,30,10,47,9.40
2022,03,30,10,48,9.40
2022,03,30,10,49,9.50
2022,03,30,10,50,9.50
2022,03,30,10,51,9.60
2022,03,30,10,52,9.70
2022,03,30,10,53,9.70
2022,03,30,10,54,9.70
2022,03,30,10,55,9.70
2022,03,30,10,56,9.70
2022,03,30,10,57,9.80
2022,03,30,10,58,9.80
2022,03,30,10,59,9.80
2022,03,30,11,00,9.80
2022,03,30,11,01,9.80
2022,03,30,11,02,9.90
2022,03,30,11,03,9.90
2022,03,30,11,04,9.90
2022,03,30,11,05,10.00
2022,03,30,11,06,9.90
2022,03,30,11,07,9.90
2022,03,30,11,08,9.90
2022,03,30,11,09,9.90
2022,03,30,11,10,9.90
2022,03,30,11,11,10.00
2022,03,30,11,12,10.10
2022,03,30,11,13,10.10
2022,03,30,11,14,10.20
2022,03,30,11,15,10.20
2022,03,30,11,16,10.20
2022,03,30,11,17,10.20
2022,03,30,11,18,10.20
2022,03,30,11,19,10.20
2022,03,30,11,20,10.30
2022,03,30,11,21,10.30
2022,03,30,11,22,10.30
2022,03,30,11,23,10.30
2022,03,30,11,24,10.30
2022,03,30,11,25,10.30
2022,03,30,11,26,10.30
2022,03,30,11,27,10.30
2022,03,30,11,28,10.30
2022,03,30,11,29,10.40
2022,03,30,11,30,10.40
2022,03,30,11,31,10.50
2022,03,30,11,32,10.50
2022,03,30,11,33,10.50
2022,03,30,11,34,10.50
2022,03,30,11,35,10.60
2022,03,30,11,36,10.60
2022,03,30,11,37,10.70
2022,03,30,11,38,10.70
2022,03,30,11,39,10.70
2022,03,30,11,40,10.70
2022,03,30,11,41,10.60
2022,03,30,11,42,10.70
2022,03,30,11,43,10.70
2022,03,30,11,44,10.70
2022,03,30,11,45,10.70
2022,03,30,11,46,10.70
2022,03,30,11,47,10.70
2022,03,30,11,48,10.70
2022,03,30,11,49,10.80
2022,03,30,11,50,10.80
2022,03,30,11,51,10.80
2022,03,30,11,52,10.80
2022,03,30,11,53,10.80
2022,03,30,11,54,10.80
2022,03,30,11,55,10.70
2022,03,30,11,56,10.70
2022,03,30,11,57,10.70
2022,03,30,11,58,10.70
2022,03,30,11,59,10.70
2022,03,30,12,00,10.70
2022,03,30,12,01,10.70
2022,03,30,12,02,10.80
2022,03,30,12,03,10.70
2022,03,30,12,04,10.80
2022,03,30,12,05,10.80
2022,03,30,12,06,10.70
2022,03,30,12,07,10.60
2022,03,30,12,08,10.50
2022,03,30,12,09,10.50
2022,03,30,12,10,10.30
2022,03,30,12,11,10.20
2022,03,30,12,12,10.00
2022,03,30,12,13,9.90
2022,03,30,12,14,9.70
2022,03,30,12,15,9.60
2022,03,30,12,16,9.60
2022,03,30,12,17,9.60
2022,03,30,12,18,9.60
2022,03,30,12,19,9.60
2022,03,30,12,20,9.70
2022,03,30,12,21,9.70
2022,03,30,12,22,9.80
2022,03,30,12,23,9.80
2022,03,30,12,24,9.80
2022,03,30,12,25,9.80
2022,03,30,12,26,9.80
2022,03,30,12,27,9.80
2022,03,30,12,28,9.80
2022,03,30,12,29,9.70
2022,03,30,12,30,9.60
2022,03,30,12,31,9.60
2022,03,30,12,32,9.60
2022,03,30,12,33,9.70
2022,03,30,12,34,9.80
2022,03,30,12,35,9.70
2022,03,30,12,36,9.70
2022,03,30,12,37,9.70
2022,03,30,12,38,9.80
2022,03,30,12,39,9.90
2022,03,30,12,40,9.90
2022,03,30,12,41,9.90
2022,03,30,12,42,10.00
2022,03,30,12,43,10.00
2022,03,30,12,44,10.00
2022,03,30,12,45,10.00
2022,03,30,12,46,10.10
2022,03,30,12,47,10.20
2022,03,30,12,48,10.20
2022,03,30,12,49,10.30
2022,03,30,12,50,10.30
2022,03,30,12,51,10.30
2022,03,30,12,52,10.30
2022,03,30,12,53,10.30
2022,03,30,12,54,10.40
2022,03,30,12,55,10.40
2022,03,30,12,56,10.40
2022,03,30,12,57,10.40
2022,03,30,12,58,10.30
2022,03,30,12,59,10.30
2022,03,30,13,00,10.30
2022,03,30,13,01,10.40
2022,03,30,13,02,10.40
2022,03,30,13,03,10.30
2022,03,30,13,04,10.30
2022,03,30,13,05,10.30
2022,03,30,13,06,10.30
2022,03,30,13,07,10.30
2022,03,30,13,08,10.40
2022,03,30,13,09,10.50
2022,03,30,13,10,10.50
2022,03,30,13,11,10.50
2022,03,30,13,12,10.60
2022,03,30,13,13,10.60
2022,03,30,13,14,10.60
2022,03,30,13,15,10.60
2022,03,30,13,16,10.60
2022,03,30,13,17,10.70
2022,03,30,13,18,10.70
2022,03,30,13,19,10.60
2022,03,30,13,20,10.60
2022,03,30,13,21,10.60
2022,03,30,13,22,10.50
2022,03,30,13,23,10.50
2022,03,30,13,24,10.40
2022,03,30,13,25,10.30
2022,03,30,13,26,10.20
2022,03,30,13,27,10.20
2022,03,30,13,28,10.20
2022,03,30,13,29,10.10
2022,03,30,13,30,10.10
2022,03,30,13,31,10.10
2022,03,30,13,32,10.10
2022,03,30,13,33,10.10
2022,03,30,13,34,10.10
2022,03,30,13,35,10.10
2022,03,30,13,36,10.10
2022,03,30,13,37,10.10
2022,03,30,13,38,10.20
2022,03,30,13,39,10.20
2022,03,30,13,40,10.30
2022,03,30,13,41,10.30
2022,03,30,13,42,10.30
2022,03,30,13,43,10.40
2022,03,30,13,44,10.40
2022,03,30,13,45,10.50
2022,03,30,13,46,10.50
2022,03,30,13,47,10.60
2022,03,30,13,48,10.70
2022,03,30,13,49,10.70
2022,03,30,13,50,10.70
2022,03,30,13,51,10.70
2022,03,30,13,52,10.70
2022,03,30,13,53,10.80
2022,03,30,13,54,10.70
2022,03,30,13,55,10.80
2022,03,30,13,56,10.80
2022,03,30,13,57,10.80
2022,03,30,13,58,10.80
2022,03,30,13,59,10.90
2022,03,30,14,00,11.00
2022,03,30,14,01,11.00
2022,03,30,14,02,11.20
2022,03,30,14,03,11.20
2022,03,30,14,04,11.20
2022,03,30,14,05,11.20
2022,03,30,14,06,11.30
2022,03,30,14,07,11.40
2022,03,30,14,08,11.50
2022,03,30,14,09,11.60
2022,03,30,14,10,11.70
2022,03,30,14,11,11.70
2022,03,30,14,12,11.60
2022,03,30,14,13,11.50
2022,03,30,14,14,11.40
2022,03,30,14,15,11.20
2022,03,30,14,16,11.10
2022,03,30,14,17,11.00
2022,03,30,14,18,10.90
2022,03,30,14,19,10.90
2022,03,30,14,20,10.90
2022,03,30,14,21,10.80
2022,03,30,14,22,10.80
2022,03,30,14,23,10.80
2022,03,30,14,24,10.80
2022,03,30,14,25,10.70
2022,03,30,14,26,10.70
2022,03,30,14,27,10.80
2022,03,30,14,28,10.70
2022,03,30,14,29,10.70
2022,03,30,14,30,10.70
2022,03,30,14,31,10.70
2022,03,30,14,32,10.60
2022,03,30,14,33,10.50
2022,03,30,14,34,10.50
2022,03,30,14,35,10.50
2022,03,30,14,36,10.50
2022,03,30,14,37,10.60
2022,03,30,14,38,10.60
2022,03,30,14,39,10.60
2022,03,30,14,40,10.60
2022,03,30,14,41,10.60
2022,03,30,14,42,10.60
2022,03,30,14,43,10.60
2022,03,30,14,44,10.60
2022,03,30,14,45,10.60
2022,03,30,14,46,10.70
2022,03,30,14,47,10.70
2022,03,30,14,48,10.60
2022,03,30,14,49,10.70
2022,03,30,14,50,10.70
2022,03,30,14,51,10.60
2022,03,30,14,52,10.60
2022,03,30,14,53,10.70
2022,03,30,14,54,10.70
2022,03,30,14,55,10.70
2022,03,30,14,56,10.70
2022,03,30,14,57,10.80
2022,03,30,14,58,10.90
2022,03,30,14,59,11.00
2022,03,30,15,00,11.10
2022,03,30,15,01,11.20
2022,03,30,15,02,11.20
2022,03,30,15,03,11.20
2022,03,30,15,04,11.10
2022,03,30,15,05,11.10
2022,03,30,15,06,11.10
2022,03,30,15,07,11.10
2022,03,30,15,08,11.00
2022,03,30,15,09,10.90
2022,03,30,15,10,10.90
2022,03,30,15,11,10.90
2022,03,30,15,12,11.00
2022,03,30,15,13,11.00
2022,03,30,15,14,11.00
2022,03,30,15,15,11.00
2022,03,30,15,16,11.10
2022,03,30,15,17,11.10
2022,03,30,15,18,11.10
2022,03,30,15,19,11.10
2022,03,30,15,20,11.10
2022,03,30,15,21,11.10
2022,03,30,15,22,11.00
2022,03,30,15,23,10.90
2022,03,30,15,24,10.90
2022,03,30,15,25,10.90
2022,03,30,15,26,10.90
2022,03,30,15,27,10.90
2022,03,30,15,28,10.80
2022,03,30,15,29,10.80
2022,03,30,15,30,10.70
2022,03,30,15,31,10.60
2022,03,30,15,32,10.60
2022,03,30,15,33,10.60
2022,03,30,15,34,10.60
2022,03,30,15,35,10.60
2022,03,30,15,36,10.60
2022,03,30,15,37,10.70
2022,03,30,15,38,10.80
2022,03,30,15,39,10.80
2022,03,30,15,40,10.80
2022,03,30,15,41,10.90
2022,03,30,15,42,10.90
2022,03,30,15,43,10.80
2022,03,30,15,44,10.80
2022,03,30,15,45,10.80
2022,03,30,15,46,10.80
2022,03,30,15,47,10.80
2022,03,30,15,48,10.80
2022,03,30,15,49,10.80
2022,03,30,15,50,10.80
2022,03,30,15,51,10.90
2022,03,30,15,52,10.90
2022,03,30,15,53,11.00
2022,03,30,15,54,11.00
2022,03,30,15,55,11.00
2022,03,30,15,56,11.00
2022,03,30,15,57,11.00
2022,03,30,15,58,11.00
2022,03,30,15,59,10.90
2022,03,30,16,00,10.90
2022,03,30,16,01,10.90
2022,03,30,16,02,11.00
2022,03,30,16,03,11.00
2022,03,30,16,04,11.10
2022,03,30,16,05,11.10
2022,03,30,16,06,11.20
2022,03,30,16,07,11.20
2022,03,30,16,08,11.20
2022,03,30,16,09,11.20
2022,03,30,16,10,11.20
2022,03,30,16,11,11.20
2022,03,30,16,12,11.10
2022,03,30,16,13,11.10
2022,03,30,16,14,11.00
2022,03,30,16,15,11.00
2022,03,30,16,16,11.00
2022,03,30,16,17,11.00
2022,03,30,16,18,11.10
2022,03,30,16,19,11.10
2022,03,30,16,20,11.20
2022,03,30,16,21,11.20
2022,03,30,16,22,11.20
2022,03,30,16,23,11.10
2022,03,30,16,24,11.00
2022,03,30,16,25,10.90
2022,03,30,16,26,10.90
2022,03,30,16,27,10.90
2022,03,30,16,28,10.90
2022,03,30,16,29,10.90
2022,03,30,16,30,10.90
2022,03,30,16,31,10.90
2022,03,30,16,32,10.90
2022,03,30,16,33,10.90
2022,03,30,16,34,10.80
2022,03,30,16,35,10.80
2022,03,30,16,36,10.90
2022,03,30,16,37,10.90
2022,03,30,16,38,10.90
2022,03,30,16,39,10.80
2022,03,30,16,40,10.80
2022,03,30,16,41,10.70
2022,03,30,16,42,10.70
2022,03,30,16,43,10.70
2022,03,30,16,44,10.50
2022,03,30,16,45,10.40
2022,03,30,16,46,10.40
2022,03,30,16,47,10.30
2022,03,30,16,48,10.40
2022,03,30,16,49,10.40
2022,03,30,16,50,10.40
2022,03,30,16,51,10.50
2022,03,30,16,52,10.50
2022,03,30,16,53,10.50
2022,03,30,16,54,10.50
2022,03,30,16,55,10.50
2022,03,30,16,56,10.50
2022,03,30,16,57,10.50
2022,03,30,16,58,10.50
2022,03,30,16,59,10.50
2022,03,30,17,00,10.50
2022,03,30,17,01,10.50
2022,03,30,17,02,10.50
2022,03,30,17,03,10.50
2022,03,30,17,04,10.60
2022,03,30,17,05,10.60
2022,03,30,17,06,10.60
2022,03,30,17,07,10.50
2022,03,30,17,08,10.50
2022,03,30,17,09,10.50
2022,03,30,17,10,10.50
2022,03,30,17,11,10.50
2022,03,30,17,12,10.50
2022,03,30,17,13,10.50
2022,03,30,17,14,10.50
2022,03,30,17,15,10.60
2022,03,30,17,16,10.60
2022,03,30,17,17,10.60
2022,03,30,17,18,10.60
2022,03,30,17,19,10.70
2022,03,30,17,20,10.70
2022,03,30,17,21,10.70
2022,03,30,17,22,10.70
2022,03,30,17,23,10.70
2022,03,30,17,24,10.60
2022,03,30,17,25,10.60
2022,03,30,17,26,10.60
2022,03,30,17,27,10.60
2022,03,30,17,28,10.60
2022,03,30,17,29,10.50
2022,03,30,17,30,10.50
2022,03,30,17,31,10.50
2022,03,30,17,32,10.40
2022,03,30,17,33,10.40
2022,03,30,17,34,10.40
2022,03,30,17,35,10.40
2022,03,30,17,36,10.30
2022,03,30,17,37,10.30
2022,03,30,17,38,10.30
2022,03,30,17,39,10.30
2022,03,30,17,40,10.30
2022,03,30,17,41,10.20
2022,03,30,17,42,10.10
2022,03,30,17,43,10.10
2022,03,30,17,44,10.10
2022,03,30,17,45,10.10
2022,03,30,17,46,10.10
2022,03,30,17,47,10.10
2022,03,30,17,48,10.00
2022,03,30,17,49,10.00
2022,03,30,17,50,10.00
2022,03,30,17,51,10.00
2022,03,30,17,52,10.00
2022,03,30,17,53,10.00
2022,03,30,17,54,10.00
2022,03,30,17,55,10.00
2022,03,30,17,56,10.00
2022,03,30,17,57,10.00
2022,03,30,17,58,10.00
2022,03,30,17,59,10.00
